Powrót do katalogu

CZ-3C DEB

AktywnyHEO
NORAD 42477·DEBRIS·🇨🇳 China

Wystrzelony Feb 24, 2012 z Xichang Satellite Launch Center

Loading…

Następne Przeloty (najbliższe 24 godziny)

TLE

ŚwieżeSource: Space-Track

Epoka: Sep 11, 2026, 16:36 UTC

1 42477U 12008AM  26254.69221156  .00005940  00000-0  94308-2 0  9990
2 42477  20.1059 347.3990 6917259 221.3954  57.6366  2.67759360108246

Śledź CZ-3C DEB w czasie rzeczywistym z AllMySat

Download on the App Store